DELTA 1 DEB, 10869

Orbit data source: Space-Track

DELTA 1 DEB, 10869 is space debris in SSO originally from a launch on Thu, 29 Jul 1976 UTC launched from the Air Force Western Test Range (AFWTR). Debris objects in space refer to the collection of defunct objects orbiting the Earth. Examples of debris include non-operational satellites, rocket bodies, and fragments generated from explosions, collisions, or faulty payload assembly.

Loading next visibility...
Identifier
10869, 1976-077CX
Orbit
SSO
Country
Flag of USUS
Related business
Manufacturer
Unknown
Mission
Spacecraft
Bus & Motor
Unknown
Mass
Unknown
Launch date (UTC)
1976-07-29 (49 years ago)
Launch vehicle
Unknown
Launch site
Air Force Western Test Range (AFWTR)
Object type
Payload
Rocket body
Debris
Shape & HBR
Unknown shape, 0.1 m
Radar Cross Section
Small (<0.1 m²)

Expand to show TLE details & history
Last TLE update: 1 day ago

TLE from 1 day ago
0 DELTA 1 DEB
1 10869U 76077CX  25350.87770206  .00000101  00000-0  10574-2 0  9994
2 10869 102.2509 115.8089 0027188 135.6421 351.5072 12.43459612238660
Epoch: 2025-12-16T21:03Z
TLE epoch observation values (Epoch: 2025-12-16T21:03:53.457Z)
Latitude
51.29932°
Longitude
-90.27326°
Altitude
1,478.819 km
Speed
7.138 km/s
True Right ascension
20h 45m 49s
True Declination
51° 08' 49"
Sunlit
Object was in daylight at epoch
Visualization orbit readout
Latitude
Unknown
Longitude
Unknown
Altitude
Unknown
Speed
Unknown
Apparent Right ascension
Unknown
Apparent Declination
Unknown
Sunlit
N/A
Visualization observer readout
Local Sidereal Time
01:56:10
Azimuth
Unknown
Elevation
Unknown
Doppler factor
Unknown
Orbital elements
Apogee altitude
1,510.947 km
Perigee altitude
1,468.166 km
Semi-major axis
7,867.694 km
Eccentricity
0.00272
Inclination
102.2509°
RAAN
115.8089°
Arg. of periapsis
135.6421°
True anomaly
351.46103°
Mean anomaly
351.5072°
Eccentric anomaly
351.48413°
Mean motion
3.11008 °/min
Orbital period
115.75 mins
BSTAR
0.0010574
Loading maneuver chart data...
Computing Atmospheric mass density...
Loading historical data...
Loading historical data...
Loading historical data...
Loading historical data...
Loading historical data...
Loading historical data...
Loading historical data...

Documentation

Showing up to 5 results
|